This demonstration page uses our WeatherBlox Daily Observations layout. Learn more.

41.55636, -103.73856

Hourly Observations for June 29, 2020

Temp ( °F °C ) Dew Point ( °F °C ) Humidity (%) Winds ( mph kmh ) Pressure ( in mb ) Visibility ( mi km ) Precip ( " mm )
12:58 am 00:58 Partly Cloudy 80 26.7 46 7.5 30 30 E 13 20 29.49 999 10 16.0934 0 0
1:58 am 01:58 Clear 74 23.6 46 7.8 36 36 ESE 12 19 29.46 998 10 16.0934 0 0
2:58 am 02:58 Clear 71 21.7 46 7.7 41 41 ESE 15 24 29.45 997 10 16.0934 0 0
3:58 am 03:58 Clear 71 21.4 46 7.6 41 41 SE 14 22 29.48 998 10 16.0934 0 0
4:58 am 04:58 Mostly Cloudy 70 21.2 51 10.6 51 51 SE 17 28 29.46 998 10 16.0934 0 0
5:58 am 05:58 Mostly Cloudy 68 20 51 10.3 54 54 SE 6 9 29.47 998 10 16.0934 0 0
6:58 am 06:58 Clear 68 20.2 52 10.9 55 55 SSE 18 30 29.43 997 10 16.0934 0 0
7:58 am 07:58 Clear 69 20.4 55 12.6 61 61 SSE 20 31 29.41 996 10 16.0934 0 0
8:58 am 08:58 Clear 69 20.3 54 12.1 59 59 SSE 20 31 29.4 996 10 16.0934 0 0
9:58 am 09:58 Clear 67 19.3 55 12.6 65 65 SSE 21 33 29.41 996 10 16.0934 0 0
10:58 am 10:58 Clear 65 18.4 53 11.7 65 65 E 3 6 29.43 997 10 16.0934 0 0
11:58 am 11:58 Sunny 63 17.2 52 11 67 67 SW 7 11 29.46 998 10 16.0934 0 0
12:58 pm 12:58 Sunny 66 18.7 53 11.6 64 64 Calm 29.47 998 10 16.0934 0 0
1:58 pm 13:58 Sunny 71 21.4 53 11.5 53 53 Calm 29.49 999 10 16.0934 0 0
2:58 pm 14:58 Sunny 76 24.6 53 11.4 44 44 NE 3 6 29.5 999 10 16.0934 0 0
3:58 pm 15:58 Sunny 81 27.3 50 10 34 34 ENE 3 6 29.49 999 10 16.0934 0 0
4:58 pm 16:58 Sunny 84 28.8 49 9.2 29 29 E 7 11 29.49 999 10 16.0934 0 0
5:58 pm 17:58 Sunny 89 31.6 47 8.1 23 23 NE 7 11 29.49 999 10 16.0934 0 0
6:58 pm 18:58 Sunny 91 33 40 4.3 16 16 N 8 13 29.47 998 10 16.0934 0 0
7:58 pm 19:58 Sunny 93 33.7 37 3 14 14 ENE 13 20 29.47 998 10 16.0934 0 0
8:58 pm 20:58 Sunny 93 33.8 34 0.9 12 12 Calm 29.47 998 10 16.0934 0 0
9:58 pm 21:58 Sunny 91 32.9 37 2.7 15 15 Calm 29.48 998 10 16.0934 0 0
10:58 pm 22:58 Sunny 91 32.7 42 5.6 18 18 NE 13 20 29.47 998 10 16.0934 0 0
11:58 pm 23:58 Sunny 91 32.5 43 6.2 19 19 E 16 26 29.48 998 10 16.0934 0 0

Powered by AerisWeather